Yerevan Zvartnots, Armenia

7:42 PM +04 on January 22, 2017 (GMT +0400)
Zvartnots

Weather History for UDYZ - April, 2013

Change the Weather History Date:

Saturday, April 27, 2013

  Actual Average Record
Temperature  
Mean Temperature 58 °F -  
Max Temperature 73 °F - - ()
Min Temperature 42 °F - - ()
Degree Days  
Heating Degree Days 8    
Growing Degree Days 8 (Base 50)    
Moisture  
Dew Point 36 °F    
Average Humidity 45    
Maximum Humidity 81    
Minimum Humidity 20    
Precipitation  
Precipitation 0.00 in - - ()
Sea Level Pressure  
Sea Level Pressure 30.11 in    
Wind  
Wind Speed 3 mph ()    
Max Wind Speed 9 mph    
Max Gust Speed -    
Visibility 6.2 miles    
Events      
T = Trace of Precipitation, MM = Missing Value Source: Averaged Metar Reports

Daily Weather History Graph

Daily Weather History Graph

Search for Another Location

Airport or City:

Trip Planner

Search our weather history database for the weather conditions in past years. The results will help you decide how hot, cold, wet, or windy it might be!

Date:

Astronomy

Apr. 27, 2013 Rise Set
Actual Time 6:07 AM +04 7:53 PM +04
Civil Twilight 5:38 AM +04 8:22 PM +04
Nautical Twilight 5:03 AM +04 8:57 PM +04
Astronomical Twilight 4:25 AM +04 9:35 PM +04
Moon 9:58 PM +04 (4/27) 7:06 AM +04 (4/27)
Length of Visible Light 14h 43m
Length of Day
13h 45m
Full, 97% of the Moon is Illuminated
Apr 27
Full
May 2
Last Quarter
May 10
New
May 18
First Quarter
May 25
Full

Hourly Weather History & Observations

Time (+04) Temp. Windchill Dew Point Humidity Pressure Visibility Wind Dir Wind Speed Gust Speed Precip Events Conditions
12:00 AM 53.6 °F - 35.6 °F 51% 30.06 in 6.2 mi Variable 4.5 mph - N/A   Mostly Cloudy
12:30 AM 53.6 °F - 35.6 °F 51% 30.06 in 6.2 mi South 6.7 mph - N/A   Mostly Cloudy
1:00 AM 50.0 °F - 37.4 °F 62% 30.06 in 6.2 mi East 4.5 mph - N/A   Scattered Clouds
1:30 AM 50.0 °F - 37.4 °F 62% 30.06 in 6.2 mi ENE 6.7 mph - N/A   Scattered Clouds
2:00 AM 48.2 °F - 37.4 °F 66% 30.06 in 6.2 mi Calm Calm - N/A   Scattered Clouds
3:00 AM 48.2 °F - 37.4 °F 66% 30.06 in 6.2 mi Variable 2.2 mph - N/A   Partly Cloudy
3:30 AM 46.4 °F - 37.4 °F 71% 30.06 in 6.2 mi Variable 2.2 mph - N/A   Partly Cloudy
4:00 AM 46.4 °F - 37.4 °F 71% 30.09 in 6.2 mi Calm Calm - N/A   Partly Cloudy
4:30 AM 46.4 °F 44.4 °F 37.4 °F 71% 30.09 in 6.2 mi ESE 4.5 mph - N/A   Partly Cloudy
5:00 AM 46.4 °F - 37.4 °F 71% 30.09 in 6.2 mi Variable 2.2 mph - N/A   Partly Cloudy
5:30 AM 44.6 °F - 37.4 °F 76% 30.09 in 6.2 mi Calm Calm - N/A   Partly Cloudy
6:00 AM 42.8 °F - 37.4 °F 81% 30.12 in 6.2 mi Calm Calm - N/A   Partly Cloudy
6:30 AM 42.8 °F - 37.4 °F 81% 30.12 in 6.2 mi Calm Calm - N/A   Partly Cloudy
7:00 AM 44.6 °F - 39.2 °F 81% 30.12 in 6.2 mi Calm Calm - N/A   Clear
7:30 AM 48.2 °F - 39.2 °F 71% 30.15 in 6.2 mi Calm Calm - N/A   Clear
8:00 AM 53.6 °F - 39.2 °F 58% 30.15 in 6.2 mi Calm Calm - N/A   Clear
8:30 AM 55.4 °F - 41.0 °F 58% 30.15 in 6.2 mi Calm Calm - N/A   Clear
9:00 AM 57.2 °F - 37.4 °F 48% 30.15 in 6.2 mi Calm Calm - N/A   Clear
9:30 AM 59.0 °F - 37.4 °F 45% 30.15 in 6.2 mi Calm Calm - N/A   Clear
10:00 AM 60.8 °F - 37.4 °F 42% 30.15 in 6.2 mi Calm Calm - N/A   Clear
10:30 AM 64.4 °F - 35.6 °F 34% 30.15 in 6.2 mi Calm Calm - N/A   Clear
11:00 AM 64.4 °F - 33.8 °F 32% 30.15 in 6.2 mi Variable 2.2 mph - N/A   Clear
11:30 AM 66.2 °F - 35.6 °F 32% 30.15 in 6.2 mi SSW 6.7 mph - N/A   Clear
12:00 PM 66.2 °F - 35.6 °F 32% 30.15 in 6.2 mi Variable 4.5 mph - N/A   Partly Cloudy
12:30 PM 68.0 °F - 35.6 °F 30% 30.15 in 6.2 mi South 4.5 mph - N/A   Partly Cloudy
1:00 PM 68.0 °F - 33.8 °F 28% 30.15 in 6.2 mi Variable 4.5 mph - N/A   Partly Cloudy
1:30 PM 69.8 °F - 33.8 °F 27% 30.15 in 6.2 mi Variable 2.2 mph - N/A   Partly Cloudy
2:00 PM 69.8 °F - 32.0 °F 25% 30.12 in 6.2 mi Variable 2.2 mph - N/A   Partly Cloudy
2:30 PM 71.6 °F - 33.8 °F 25% 30.12 in 6.2 mi ESE 4.5 mph - N/A   Partly Cloudy
3:00 PM 71.6 °F - 32.0 °F 23% 30.12 in 6.2 mi SSW 6.7 mph - N/A   Partly Cloudy
3:30 PM 73.4 °F - 32.0 °F 22% 30.09 in 6.2 mi Variable 4.5 mph - N/A   Partly Cloudy
4:00 PM 73.4 °F - 33.8 °F 23% 30.09 in 6.2 mi Variable 2.2 mph - N/A   Partly Cloudy
4:30 PM 73.4 °F - 32.0 °F 22% 30.09 in 6.2 mi Variable 2.2 mph - N/A   Partly Cloudy
5:00 PM 73.4 °F - 30.2 °F 20% 30.09 in 6.2 mi Variable 2.2 mph - N/A   Partly Cloudy
5:30 PM 73.4 °F - 32.0 °F 22% 30.09 in 6.2 mi Variable 2.2 mph - N/A   Partly Cloudy
6:00 PM 73.4 °F - 30.2 °F 20% 30.09 in 6.2 mi Calm Calm - N/A   Partly Cloudy
6:30 PM 73.4 °F - 30.2 °F 20% 30.09 in 6.2 mi Calm Calm - N/A   Partly Cloudy
7:00 PM 71.6 °F - 30.2 °F 22% 30.09 in 6.2 mi Calm Calm - N/A   Partly Cloudy
7:30 PM 71.6 °F - 28.4 °F 20% 30.09 in 6.2 mi Calm Calm - N/A   Partly Cloudy
8:00 PM 66.2 °F - 33.8 °F 30% 30.09 in 6.2 mi Calm Calm - N/A   Partly Cloudy
8:30 PM 62.6 °F - 37.4 °F 39% 30.12 in 6.2 mi Calm Calm - N/A   Partly Cloudy
9:00 PM 60.8 °F - 39.2 °F 45% 30.12 in 6.2 mi Variable 2.2 mph - N/A   Partly Cloudy
9:30 PM 60.8 °F - 42.8 °F 52% 30.15 in 6.2 mi NNE 6.7 mph - N/A   Clear
10:00 PM 60.8 °F - 41.0 °F 48% 30.15 in 6.2 mi NE 8.9 mph - N/A   Clear
10:30 PM 60.8 °F - 41.0 °F 48% 30.15 in 6.2 mi NE 8.9 mph - N/A   Clear
11:00 PM 59.0 °F - 41.0 °F 51% 30.15 in 6.2 mi NE 8.9 mph - N/A   Clear
11:30 PM 59.0 °F - 41.0 °F 51% 30.15 in 6.2 mi NNE 8.9 mph - N/A   Clear